Back to catalog

FALCON 9 R/B

AliveHEO
NORAD 40618·ROCKET BODY·🇺🇸 United States

Launched Apr 27, 2015 from Cape Canaveral Space Force Station

Loading…

Next Passes (next 24 hours)

TLE

FreshSource: Space-Track

Epoch: Sep 14, 2026, 09:56 UTC

1 40618U 15023B   26257.41435721  .00083921 -14493-6  11722-2 0  9995
2 40618  25.1218  96.5573 5538125  46.6762 347.9824  4.86979586133900

Track FALCON 9 R/B in real time with AllMySat

Download on the App Store